Pecos, TX

10:02 PM CST on November 21, 2017 (GMT -0600)
Pecos Municipal

Weather History for KPEQ - September, 2013

Change the Weather History Date:

Monday, September 16, 2013

  Actual Average Record
Temperature  
Mean Temperature 78 °F -  
Max Temperature 90 °F 89 °F 105 °F (1956)
Min Temperature 67 °F 60 °F 49 °F (1993)
Cooling Degree Days 12    
Growing Degree Days 28 (Base 50)    
Moisture  
Dew Point 59 °F    
Average Humidity 54    
Maximum Humidity 78    
Minimum Humidity 32    
Precipitation  
Precipitation 0.00 in - - ()
Sea Level Pressure  
Sea Level Pressure 30.07 in    
Wind  
Wind Speed 10 mph (East)    
Max Wind Speed 18 mph    
Max Gust Speed 23 mph    
Visibility 10 miles    
Events Thunderstorm    
Averages and records for this station are not official NWS values.
T = Trace of Precipitation, MM = Missing Value Source: NWS Daily Summary

Daily Weather History Graph

Daily Weather History Graph

Search for Another Location

Airport or City:

Trip Planner

Search our weather history database for the weather conditions in past years. The results will help you decide how hot, cold, wet, or windy it might be!

Date:

Astronomy

Sep. 16, 2013 Rise Set
Actual Time 7:38 AM CDT 7:58 PM CDT
Civil Twilight 7:14 AM CDT 8:22 PM CDT
Nautical Twilight 6:46 AM CDT 8:50 PM CDT
Astronomical Twilight 6:17 AM CDT 9:19 PM CDT
Moon 6:01 PM CDT (9/16) 4:37 AM CDT (9/16)
Length of Visible Light 13h 07m
Length of Day
12h 19m
Waxing Gibbous, 90% of the Moon is Illuminated
Sep 16
Waxing Gibbous
Sep 19
Full
Sep 26
Last Quarter
Oct 4
New
Oct 11
First Quarter

Hourly Weather History & Observations

Time (CDT) Temp. Heat Index Dew Point Humidity Pressure Visibility Wind Dir Wind Speed Gust Speed Precip Events Conditions
12:15 AM 78.8 °F - 59.2 °F 51% 30.05 in 10.0 mi ESE 9.2 mph - N/A   Clear
12:35 AM 77.9 °F - 59.2 °F 52% 30.05 in 10.0 mi SE 10.4 mph - N/A   Clear
12:55 AM 76.6 °F - 59.2 °F 55% 30.05 in 10.0 mi ESE 10.4 mph - N/A   Clear
1:15 AM 76.3 °F - 59.5 °F 56% 30.05 in 10.0 mi ESE 9.2 mph - N/A   Clear
1:35 AM 76.3 °F - 60.4 °F 58% 30.05 in 10.0 mi ESE 12.7 mph - N/A   Clear
1:55 AM 76.1 °F - 60.8 °F 59% 30.05 in 10.0 mi ESE 10.4 mph - N/A   Clear
2:15 AM 75.2 °F - 60.1 °F 59% 30.05 in 10.0 mi ESE 8.1 mph - N/A   Clear
2:35 AM 74.3 °F - 60.3 °F 61% 30.05 in 10.0 mi ESE 5.8 mph - N/A   Clear
2:55 AM 73.2 °F - 59.5 °F 62% 30.05 in 10.0 mi ESE 6.9 mph - N/A   Clear
3:15 AM 72.0 °F - 59.0 °F 64% 30.05 in 10.0 mi East 6.9 mph - N/A   Clear
3:35 AM 70.9 °F - 59.0 °F 66% 30.05 in 10.0 mi ESE 6.9 mph - N/A   Clear
3:55 AM 71.2 °F - 58.6 °F 64% 30.05 in 10.0 mi ESE 6.9 mph - N/A   Clear
4:15 AM 70.7 °F - 58.8 °F 66% 30.05 in 10.0 mi East 6.9 mph - N/A   Clear
4:35 AM 70.7 °F - 58.6 °F 66% 30.05 in 10.0 mi East 8.1 mph - N/A   Clear
4:55 AM 70.0 °F - 58.6 °F 67% 30.06 in 10.0 mi East 8.1 mph - N/A   Clear
5:15 AM 69.1 °F - 58.6 °F 69% 30.06 in 10.0 mi East 5.8 mph - N/A   Clear
5:35 AM 68.0 °F - 58.5 °F 71% 30.07 in 10.0 mi NE 6.9 mph - N/A   Clear
5:55 AM 68.2 °F - 59.0 °F 72% 30.07 in 10.0 mi ENE 9.2 mph - N/A   Clear
6:15 AM 68.0 °F - 59.4 °F 74% 30.07 in 10.0 mi ENE 9.2 mph - N/A   Clear
6:35 AM 68.0 °F - 59.7 °F 75% 30.07 in 10.0 mi ENE 10.4 mph - N/A   Clear
6:55 AM 67.6 °F - 59.9 °F 76% 30.08 in 10.0 mi ENE 8.1 mph - N/A   Clear
7:15 AM 68.0 °F - 60.3 °F 76% 30.09 in 10.0 mi ENE 8.1 mph - N/A   Clear
7:35 AM 67.8 °F - 60.4 °F 77% 30.10 in 10.0 mi ENE 5.8 mph - N/A   Clear
7:55 AM 67.5 °F - 60.4 °F 78% 30.11 in 10.0 mi East 6.9 mph - N/A   Clear
8:15 AM 68.2 °F - 61.2 °F 78% 30.12 in 10.0 mi East 9.2 mph - N/A   Clear
8:35 AM 68.9 °F - 61.3 °F 77% 30.12 in 10.0 mi East 11.5 mph - N/A   Clear
8:55 AM 71.8 °F - 62.2 °F 72% 30.12 in 10.0 mi East 12.7 mph - N/A   Clear
9:15 AM 72.3 °F - 62.4 °F 71% 30.12 in 10.0 mi East 11.5 mph - N/A   Clear
9:35 AM 71.6 °F - 62.2 °F 72% 30.12 in 10.0 mi East 11.5 mph - N/A   Clear
9:55 AM 73.6 °F - 63.0 °F 69% 30.13 in 10.0 mi East 12.7 mph - N/A   Clear
10:15 AM 76.3 °F - 63.5 °F 64% 30.13 in 10.0 mi East 12.7 mph - N/A   Clear
10:35 AM 77.9 °F - 63.5 °F 61% 30.14 in 10.0 mi East 11.5 mph 17.3 mph N/A   Clear
10:55 AM 77.9 °F - 63.5 °F 61% 30.14 in 10.0 mi ESE 16.1 mph - N/A   Clear
11:15 AM 77.5 °F - 63.5 °F 62% 30.14 in 10.0 mi East 13.8 mph - N/A   Clear
11:35 AM 79.0 °F - 63.5 °F 59% 30.15 in 10.0 mi ESE 11.5 mph - N/A   Clear
11:55 AM 79.7 °F - 63.0 °F 56% 30.14 in 10.0 mi East 15.0 mph 18.4 mph N/A   Clear
12:15 PM 81.3 °F 82.5 °F 62.8 °F 53% 30.14 in 10.0 mi East 11.5 mph 17.3 mph N/A   Clear
12:35 PM 82.0 °F 83.1 °F 62.6 °F 52% 30.14 in 10.0 mi ESE 12.7 mph - N/A   Scattered Clouds
12:55 PM 84.7 °F 85.2 °F 61.9 °F 46% 30.14 in 10.0 mi ESE 10.4 mph 18.4 mph N/A   Clear
1:15 PM 84.0 °F 84.2 °F 60.6 °F 45% 30.13 in 10.0 mi ESE 18.4 mph 21.9 mph N/A   Clear
1:35 PM 84.4 °F 84.6 °F 60.6 °F 45% 30.12 in 10.0 mi East 16.1 mph 19.6 mph N/A   Clear
1:55 PM 85.5 °F 85.4 °F 60.6 °F 43% 30.11 in 10.0 mi ESE 15.0 mph 21.9 mph N/A   Clear
2:15 PM 87.6 °F 86.9 °F 59.4 °F 38% 30.10 in 10.0 mi East 15.0 mph 21.9 mph N/A   Clear
2:35 PM 86.4 °F 85.9 °F 59.4 °F 40% 30.09 in 10.0 mi East 13.8 mph 20.7 mph N/A   Clear
2:55 PM 87.1 °F 86.7 °F 59.9 °F 40% 30.07 in 10.0 mi East 9.2 mph - N/A   Clear
3:15 PM 88.0 °F 87.1 °F 58.6 °F 37% 30.06 in 10.0 mi ENE 11.5 mph 17.3 mph N/A   Clear
3:35 PM 88.0 °F 86.5 °F 56.5 °F 34% 30.05 in 10.0 mi East 18.4 mph - N/A   Clear
3:55 PM 88.3 °F 86.9 °F 56.7 °F 34% 30.04 in 10.0 mi SE 9.2 mph 18.4 mph N/A   Clear
4:15 PM 88.2 °F 86.9 °F 57.4 °F 35% 30.03 in 10.0 mi East 13.8 mph 18.4 mph N/A   Clear
4:35 PM 88.0 °F 86.7 °F 56.8 °F 35% 30.02 in 10.0 mi East 8.1 mph - N/A   Clear
4:55 PM 88.2 °F 86.7 °F 56.3 °F 34% 30.02 in 10.0 mi ESE 12.7 mph 16.1 mph N/A   Clear
5:15 PM 88.3 °F 86.9 °F 56.3 °F 34% 30.01 in 10.0 mi East 16.1 mph 19.6 mph N/A   Clear
5:35 PM 88.3 °F 86.9 °F 56.5 °F 34% 30.01 in 10.0 mi East 15.0 mph - N/A   Clear
5:55 PM 88.2 °F 86.5 °F 55.4 °F 33% 30.00 in 10.0 mi East 12.7 mph - N/A   Clear
6:15 PM 88.0 °F 86.1 °F 54.9 °F 32% 30.00 in 10.0 mi East 10.4 mph - N/A   Clear
6:35 PM 87.8 °F 85.9 °F 54.5 °F 32% 30.01 in 10.0 mi East 12.7 mph - N/A   Clear
6:55 PM 87.6 °F 85.7 °F 54.1 °F 32% 30.01 in 10.0 mi East 12.7 mph - N/A   Clear
7:15 PM 86.9 °F 85.1 °F 54.7 °F 33% 30.01 in 10.0 mi ESE 10.4 mph - N/A   Clear
7:35 PM 86.2 °F 84.9 °F 56.3 °F 36% 30.02 in 10.0 mi East 13.8 mph - N/A   Clear
7:55 PM 84.9 °F 83.9 °F 56.7 °F 38% 30.02 in 10.0 mi East 10.4 mph - N/A   Clear
8:15 PM 84.4 °F 83.4 °F 56.5 °F 38% 30.03 in 10.0 mi ESE 11.5 mph - N/A   Clear
8:35 PM 83.1 °F 82.4 °F 56.5 °F 40% 30.03 in 10.0 mi ESE 8.1 mph - N/A   Clear
8:55 PM 82.2 °F 81.5 °F 54.9 °F 39% 30.04 in 10.0 mi SE 6.9 mph - N/A   Clear
9:15 PM 81.5 °F 81.0 °F 55.0 °F 40% 30.05 in 10.0 mi ESE 6.9 mph - N/A Thunderstorm Clear
9:35 PM 81.1 °F 80.8 °F 54.9 °F 40% 30.05 in 10.0 mi ESE 6.9 mph - N/A   Scattered Clouds
9:55 PM 80.6 °F 80.9 °F 58.3 °F 46% 30.07 in 10.0 mi East 13.8 mph - N/A   Clear
10:15 PM 79.3 °F - 59.5 °F 51% 30.07 in 10.0 mi ENE 18.4 mph 23.0 mph N/A   Clear
10:35 PM 77.9 °F - 62.6 °F 59% 30.07 in 10.0 mi ENE 16.1 mph 23.0 mph N/A   Scattered Clouds
10:55 PM 77.0 °F - 62.2 °F 60% 30.09 in 10.0 mi East 11.5 mph - N/A   Clear
11:15 PM 76.5 °F - 63.7 °F 64% 30.09 in 10.0 mi ESE 13.8 mph - N/A   Clear
11:35 PM 76.1 °F - 64.0 °F 66% 30.10 in 10.0 mi East 11.5 mph - N/A   Clear
11:55 PM 75.4 °F - 63.7 °F 67% 30.10 in 10.0 mi ESE 10.4 mph 16.1 mph N/A   Clear